Tracking 29892 objects as of 21-Nov-2024
HD Live streaming from Space Station
objects crossing your sky now

HAWK-7A

Track HAWK-7A now!
10-day predictions


NORAD ID: 56191
Int'l Code: 2023-054P
Perigee: 500.1 km
Apogee: 509.0 km
Inclination: 97.3 °
Period: 94.6 minutes
Semi major axis: 6875 km
RCS: Unknown
Launch date: April 15, 2023
Source: United States (US)
Launch site: AIR FORCE WESTERN TEST RANGE (AFWTR)
Your satellite tracking list
Your tracking list is empty




NASA's NSSDC Master Catalog

Two Line Element Set (TLE):
1 56191U 23054P   24325.63394567  .00012355  00000-0  53089-3 0  9999
2 56191  97.3486 213.6550 0006517 324.4254  35.6547 15.22793700 89492
Source of the keplerian elements: AFSPC